Tracking 26308 objects as of 1-Dec-2022
HD Live streaming from Space Station
objects crossing your sky now

YAOGAN-36 01A

Track YAOGAN-36 01A now!
10-day predictions


NORAD ID: 53943
Int'l Code: 2022-120A
Perigee: 502.4 km
Apogee: 505.7 km
Inclination: 35.0 °
Period: 94.6 minutes
Semi major axis: 6875 km
RCS: Unknown
Launch date: September 26, 2022
Source: People's Republic of China (PRC)
Launch site: Xichang Space Center, China (XSC)
aabbcc
Your satellite tracking list
Your tracking list is empty




NASA's NSSDC Master Catalog

Two Line Element Set (TLE):
1 53943U 22120A   22334.84124524  .00005564  00000-0  23264-3 0  9995
2 53943  34.9967 134.5962 0002381 203.0131 299.7961 15.22954369  9961
Source of the keplerian elements: AFSPC